Miscellaneous Local Product
Issued by NWS Hastings, NE

Home | Current Version | Previous Version | Text Only | Print | Product List | Glossary On
Versions: 1 2 3 4 5 6 7 8 9 10 11 12 13 14 15 16 17 18 19 20 21 22 23 24 25 26 27 28 29 30 31 32 33 34 35 36 37 38 39 40 41 42 43 44 45 46 47 48 49 50
826
AXUS43 KGID 181902
MISGRI

GID CWA HOURLY WEATHER ROUNDUP
NATIONAL WEATHER SERVICE HASTINGS NE
200 PM CDT WED OCT 18 2017

NOTE: "FAIR" INDICATES FEW OR NO CLOUDS BELOW 12,000 FEET WITH NO
SIGNIFICANT WEATHER AND/OR OBSTRUCTIONS TO VISIBILITY.

...SOUTH CENTRAL NEBRASKA...

CITY           SKY/WX    TMP DP  RH WIND       PRES   REMARKS
GRAND ISLAND   SUNNY     75  40  28 N10       29.96R
HASTINGS       SUNNY     75  37  25 NW14      29.96R
KEARNEY        SUNNY     75  36  24 N18       29.97S
ORD            LGT RAIN  72  31  22 N16G24    29.99R
YORK           SUNNY     73  45  35 NW3       29.94S
AURORA         SUNNY     76  38  25 N10G17    29.95R
LEXINGTON      SUNNY     74  34  23 NE18G24   30.00S
HOLDREGE       SUNNY     76  37  24 N9G18     29.97S
HEBRON         SUNNY     74  47  37 S12       29.93S

...NEBRASKA PANHANDLE...

CITY           SKY/WX    TMP DP  RH WIND       PRES   REMARKS
CHADRON        SUNNY     66  26  22 NE8       30.10F
ALLIANCE       SUNNY     68  27  21 NE10      30.10F
SCOTTSBLUFF    SUNNY     72  24  16 VRB5      30.11F
SIDNEY         SUNNY     72  22  15 NE14      30.12S

...WESTERN AND NORTH CENTRAL NEBRASKA...

CITY           SKY/WX    TMP DP  RH WIND       PRES   REMARKS
VALENTINE      SUNNY     69  29  22 N14       30.07S
AINSWORTH      SUNNY     66  35  31 N15G21    30.06S
ONEILL         SUNNY     70  37  30 N17       30.01R
BROKEN BOW     SUNNY     72  35  25 N17G26    30.02R
IMPERIAL       SUNNY     78  19  11 N15       30.06S
NORTH PLATTE   SUNNY     75  31  19 NE20      30.04S
MCCOOK         SUNNY     79  30  16 NE21G26   30.01R

...EASTERN NEBRASKA...

CITY           SKY/WX    TMP DP  RH WIND       PRES   REMARKS
NORFOLK        SUNNY     72  38  29 N14       29.92S
SO SIOUX CITY  SUNNY     71  47  42 N9        29.92S
TEKAMAH        SUNNY     75  45  34 VRB6      29.91F
COLUMBUS       SUNNY     74  40  29 NW5       29.93S
ALBION         SUNNY     74  38  27 N14G20    29.95S
OMAHA EPPLEY   MOSUNNY   73  48  41 S10       29.92S
OFFUTT AFB     SUNNY     73  49  41 S8        29.92S
MILLARD        SUNNY     74  50  42 S5        29.93R
LINCOLN        SUNNY     75  48  38 SW7       29.93S
NEBRASKA CITY  SUNNY     71  49  46 S14       29.94S
BEATRICE       SUNNY     72  51  47 SW12      29.94R
FALLS CITY     SUNNY     70  48  45 S12G22    29.95F

...NORTHERN KANSAS...

CITY           SKY/WX    TMP DP  RH WIND       PRES   REMARKS
GOODLAND         N/A     79  19  10 N10G20    30.05F
HILL CITY      MOSUNNY   82  33  17 NW7       29.98F
NORTON         CLEAR     75  23  14 NW8       29.98S
PHILLIPSBURG   SUNNY     79  30  17 W9        29.96S
SMITH CENTER   SUNNY     73  43  33 SW6       29.95F
HAYS           SUNNY     82  43  25 VRB7      29.97F
RUSSELL        CLOUDY    77  48  35 S9        29.96F
CONCORDIA      MOSUNNY   69  50  50 S13       29.94F
SALINA         SUNNY     75  51  43 SW14      29.98F
TOPEKA         MOSUNNY   72  48  42 SW10      29.98F



USA.gov is the U.S. government's official web portal to all federal, state and local government web resources and services.